Weather History for Langdon, ND

Change the Weather History Date:

Tuesday, February 26, 2013

  Actual Average (KDVL) Record (KDVL)
Temperature  
Mean Temperature 19 °F -  
Max Temperature 28 °F 29 °F 49 °F (1988)
Min Temperature 10 °F 13 °F -22 °F (1962)
Degree Days  
Heating Degree Days 46    
Moisture  
Dew Point 13 °F    
Average Humidity 82    
Maximum Humidity 100    
Minimum Humidity 68    
Precipitation  
Precipitation 0.00 in - - ()
Sea Level Pressure  
Sea Level Pressure 29.95 in    
Wind  
Wind Speed 11 mph (SSW)    
Max Wind Speed 16 mph    
Max Gust Speed -    
Visibility 10 miles    
Events      
Averages and records for this station are not official NWS values.
T = Trace of Precipitation, MM = Missing Value Source: NWS Daily Summary

Daily Weather History Graph

Daily Weather History Graph

Search for Another Location

Airport:

Trip Planner

Search our weather history database for the weather conditions in past years. The results will help you decide how hot, cold, wet, or windy it might be!

Date:

Astronomy

Feb. 26, 2013 Rise Set
Actual Time 7:20 AM CST 6:12 PM CST
Civil Twilight 6:48 AM CST 6:44 PM CST
Nautical Twilight 6:12 AM CST 7:21 PM CST
Astronomical Twilight 5:36 AM CST 7:57 PM CST
Moon 7:42 PM CST (2/26) 7:15 AM CST (2/26)
Length of Visible Light 11h 55m
Length of Day
10h 52m
Full, 99% of the Moon is Illuminated
Feb 26
Full
Mar 4
Last Quarter
Mar 11
New
Mar 19
First Quarter
Mar 27
Full

Hourly Weather History & Observations

Time (CST) Temp. Windchill Dew Point Humidity Pressure Visibility Wind Dir Wind Speed Gust Speed Precip Events Conditions
12:15 AM 17.6 °F 4.3 °F 14.0 °F 86% 29.86 in 10.0 mi SSW 12.7 mph - N/A   Clear
12:35 AM 17.6 °F 4.3 °F 14.0 °F 86% 29.86 in 10.0 mi South 12.7 mph - N/A   Clear
12:55 AM 17.6 °F 2.7 °F 14.0 °F 86% 29.86 in 10.0 mi South 16.1 mph - N/A   Clear
1:15 AM 15.8 °F 0.9 °F 14.0 °F 93% 29.86 in 10.0 mi South 15.0 mph - N/A   Clear
1:35 AM 15.8 °F 1.4 °F 12.2 °F 86% 29.87 in 10.0 mi South 13.8 mph - N/A   Clear
1:55 AM 15.8 °F 0.9 °F 12.2 °F 86% 29.87 in 10.0 mi South 15.0 mph - N/A   Clear
2:15 AM 15.8 °F 2.7 °F 10.4 °F 79% 29.87 in 10.0 mi SSW 11.5 mph - N/A   Clear
2:35 AM 14.0 °F -0.8 °F 10.4 °F 86% 29.87 in 10.0 mi South 13.8 mph - N/A   Clear
2:55 AM 15.8 °F 0.9 °F 10.4 °F 79% 29.88 in 10.0 mi South 15.0 mph - N/A   Clear
3:15 AM 14.0 °F 0.5 °F 10.4 °F 86% 29.87 in 10.0 mi South 11.5 mph - N/A   Clear
3:35 AM 14.0 °F -0.2 °F 8.6 °F 79% 29.87 in 10.0 mi South 12.7 mph - N/A   Clear
3:55 AM 14.0 °F -0.2 °F 8.6 °F 79% 29.88 in 10.0 mi South 12.7 mph - N/A   Clear
4:15 AM 14.0 °F -0.8 °F 10.4 °F 86% 29.88 in 10.0 mi South 13.8 mph - N/A   Clear
4:35 AM 14.0 °F -0.2 °F 8.6 °F 79% 29.88 in 10.0 mi South 12.7 mph - N/A   Clear
4:55 AM 14.0 °F -0.2 °F 8.6 °F 79% 29.89 in 10.0 mi South 12.7 mph - N/A   Clear
5:15 AM 14.0 °F -0.8 °F 8.6 °F 79% 29.89 in 10.0 mi South 13.8 mph - N/A   Clear
5:35 AM 14.0 °F -0.2 °F 8.6 °F 79% 29.90 in 10.0 mi South 12.7 mph - N/A   Clear
5:55 AM 14.0 °F -0.2 °F 6.8 °F 73% 29.90 in 10.0 mi South 12.7 mph - N/A   Clear
6:15 AM 14.0 °F -0.8 °F 6.8 °F 73% 29.90 in 10.0 mi South 13.8 mph - N/A   Clear
6:35 AM 14.0 °F -1.4 °F 6.8 °F 73% 29.91 in 10.0 mi South 15.0 mph - N/A   Clear
6:55 AM 14.0 °F -0.8 °F 6.8 °F 73% 29.91 in 10.0 mi South 13.8 mph - N/A   Clear
7:15 AM 14.0 °F -0.8 °F 6.8 °F 73% 29.91 in 10.0 mi South 13.8 mph - N/A   Clear
7:35 AM 14.0 °F -1.4 °F 6.8 °F 73% 29.91 in 10.0 mi South 15.0 mph - N/A   Clear
7:55 AM 14.0 °F -2.0 °F 6.8 °F 73% 29.92 in 10.0 mi South 16.1 mph - N/A   Clear
8:15 AM 14.0 °F -0.2 °F 6.8 °F 73% 29.92 in 10.0 mi SSW 12.7 mph - N/A   Clear
8:35 AM 14.0 °F 1.2 °F 6.8 °F 73% 29.92 in 10.0 mi SSW 10.4 mph - N/A   Clear
8:55 AM 14.0 °F 1.2 °F 6.8 °F 73% 29.92 in 10.0 mi SSW 10.4 mph - N/A   Clear
9:15 AM 14.0 °F 2.0 °F 6.8 °F 73% 29.92 in 10.0 mi SSW 9.2 mph - N/A   Clear
9:35 AM 15.8 °F 2.7 °F 8.6 °F 73% 29.93 in 10.0 mi SSW 11.5 mph - N/A   Clear
9:55 AM 17.6 °F 3.7 °F 8.6 °F 68% 29.92 in 10.0 mi SSW 13.8 mph - N/A   Clear
10:15 AM 17.6 °F 5.0 °F 10.4 °F 73% 29.92 in 10.0 mi SSW 11.5 mph - N/A   Clear
10:35 AM 19.4 °F 6.0 °F 10.4 °F 68% 29.92 in 10.0 mi South 13.8 mph - N/A   Clear
10:55 AM 21.2 °F 8.3 °F 12.2 °F 68% 29.93 in 10.0 mi SSW 13.8 mph - N/A   Clear
11:15 AM 21.2 °F 8.9 °F 14.0 °F 74% 29.92 in 10.0 mi SSW 12.7 mph - N/A   Clear
11:35 AM 23.0 °F 12.4 °F 14.0 °F 68% 29.93 in 10.0 mi SSW 10.4 mph - N/A   Clear
11:55 AM 23.0 °F 12.4 °F 15.8 °F 74% 29.93 in 10.0 mi South 10.4 mph - N/A   Clear
12:15 PM 24.8 °F 13.4 °F 15.8 °F 69% 29.94 in 10.0 mi SSW 12.7 mph - N/A   Clear
12:35 PM 24.8 °F 14.0 °F 15.8 °F 69% 29.94 in 10.0 mi SSW 11.5 mph - N/A   Clear
12:55 PM 26.6 °F 17.5 °F 19.4 °F 74% 29.95 in 10.0 mi SSW 9.2 mph - N/A   Clear
1:15 PM 26.6 °F 18.2 °F 19.4 °F 74% 29.95 in 10.0 mi SSW 8.1 mph - N/A   Clear
1:35 PM 26.6 °F 18.2 °F 19.4 °F 74% 29.96 in 10.0 mi SSW 8.1 mph - N/A   Clear
1:55 PM 28.4 °F 21.2 °F 19.4 °F 69% 29.97 in 10.0 mi SW 6.9 mph - N/A   Clear
2:15 PM 28.4 °F 22.2 °F 23.0 °F 80% 29.97 in 10.0 mi SW 5.8 mph - N/A   Clear
2:35 PM 28.4 °F 23.3 °F 21.2 °F 74% 29.97 in 10.0 mi WSW 4.6 mph - N/A   Clear
2:55 PM 28.4 °F 21.2 °F 23.0 °F 80% 29.97 in 10.0 mi SW 6.9 mph - N/A   Clear
3:15 PM 26.6 °F 20.0 °F 23.0 °F 86% 29.98 in 10.0 mi SSW 5.8 mph - N/A   Clear
3:35 PM 28.4 °F 23.3 °F 23.0 °F 80% 29.98 in 10.0 mi WSW 4.6 mph - N/A   Clear
3:55 PM 26.6 °F 21.2 °F 23.0 °F 86% 29.98 in 10.0 mi SW 4.6 mph - N/A   Clear
4:15 PM 28.4 °F 24.6 °F 23.0 °F 80% 29.98 in 10.0 mi West 3.5 mph - N/A   Clear
4:35 PM 24.8 °F - 23.0 °F 93% 29.99 in 10.0 mi Calm Calm - N/A   Clear
4:55 PM 26.6 °F - 21.2 °F 80% 29.99 in 10.0 mi Calm Calm - N/A   Clear
5:15 PM 24.8 °F - 19.4 °F 80% 30.00 in 10.0 mi Calm Calm - N/A   Clear
5:35 PM 23.0 °F 17.0 °F 19.4 °F 86% 30.00 in 10.0 mi SSE 4.6 mph - N/A   Clear
5:55 PM 19.4 °F 14.3 °F 17.6 °F 93% 30.00 in 10.0 mi SSE 3.5 mph - N/A   Clear
6:15 PM 19.4 °F - 15.8 °F 86% 30.00 in 10.0 mi Calm Calm - N/A   Clear
6:35 PM 17.6 °F - 15.8 °F 93% 30.00 in 10.0 mi Calm Calm - N/A   Clear
6:55 PM 19.4 °F - 17.6 °F 93% 30.01 in 10.0 mi Calm Calm - N/A   Clear
7:15 PM 15.8 °F 10.2 °F 14.0 °F 93% 30.02 in 10.0 mi North 3.5 mph - N/A   Clear
7:35 PM 14.0 °F 5.1 °F 12.2 °F 93% 30.02 in 10.0 mi NNE 5.8 mph - N/A   Clear
7:55 PM 15.8 °F 10.2 °F 14.0 °F 93% 30.03 in 10.0 mi NE 3.5 mph - N/A   Clear
8:15 PM 15.8 °F 10.2 °F 14.0 °F 93% 30.03 in 10.0 mi ENE 3.5 mph - N/A   Clear
8:35 PM 14.0 °F 6.5 °F 12.2 °F 93% 30.04 in 10.0 mi ENE 4.6 mph - N/A   Clear
8:55 PM 12.2 °F 0.7 °F 10.4 °F 92% 30.05 in 10.0 mi NNE 8.1 mph - N/A   Clear
9:15 PM 15.8 °F 5.1 °F 14.0 °F 93% 30.05 in 10.0 mi NNE 8.1 mph - N/A   Clear
9:35 PM 15.8 °F 4.2 °F 14.0 °F 93% 30.06 in 10.0 mi NNE 9.2 mph - N/A   Clear
9:55 PM 15.8 °F 4.2 °F 14.0 °F 93% 30.06 in 10.0 mi NNE 9.2 mph - N/A   Clear
10:15 PM 14.0 °F 2.9 °F 14.0 °F 100% 30.06 in 10.0 mi NNE 8.1 mph - N/A   Clear
10:55 PM 12.2 °F 2.9 °F 10.4 °F 92% 30.06 in 10.0 mi North 5.8 mph - N/A   Clear
11:15 PM 14.0 °F 6.5 °F 10.4 °F 86% 30.06 in 10.0 mi North 4.6 mph - N/A   Clear
11:35 PM 10.4 °F 2.2 °F 8.6 °F 92% 30.07 in 10.0 mi North 4.6 mph - N/A   Clear
11:55 PM 10.4 °F -1.5 °F 10.4 °F 100% 30.07 in 9.0 mi North 8.1 mph - N/A   Clear